• In Netherlands
  • List of Countries
  • For 7 days
  • Water Temperature
  • Satellite Maps
  • Weather Map
  • Weather Widgets
  • user-avatar
    Login

    Hourly Weather La Massana

    Today, 30 April, Sunday

    Time Temperature Precipitation Wind Pressure Humidity
    00:00 -1°C° 0 mm 2 mps 605 mmHg 92%
    01:00 -2°C° 0 mm 2 mps 605 mmHg 92%
    02:00 -2°C° 0 mm 2 mps 604 mmHg 92%
    03:00 -2°C° 0 mm 2 mps 604 mmHg 91%
    04:00 -1°C° 0 mm 2 mps 604 mmHg 89%
    05:00 -1°C° 0 mm 2 mps 604 mmHg 87%
    06:00 +1°C° 0 mm 2 mps 605 mmHg 83%
    07:00 +2°C° 0 mm 3 mps 605 mmHg 77%
    08:00 +4°C° 0 mm 3 mps 606 mmHg 71%
    09:00 +5°C° 0 mm 3 mps 606 mmHg 65%
    10:00 +7°C° 0.1 mm 3 mps 606 mmHg 62%
    11:00 +7°C° 0.1 mm 4 mps 606 mmHg 59%
    12:00 +8°C° 0.1 mm 4 mps 606 mmHg 57%
    13:00 +7°C° 0.6 mm 4 mps 606 mmHg 63%
    14:00 +7°C° 0.6 mm 4 mps 605 mmHg 70%
    15:00 +6°C° 0.6 mm 4 mps 605 mmHg 76%
    16:00 +4°C° 0.9 mm 4 mps 604 mmHg 82%
    17:00 +1°C° 0.9 mm 4 mps 604 mmHg 88%
    18:00 +1°C° 0.9 mm 3 mps 604 mmHg 94%
    19:00 0°C° 0.6 mm 3 mps 604 mmHg 94%
    20:00 -1°C° 0.6 mm 2 mps 605 mmHg 94%
    21:00 0°C° 0.6 mm 1 mps 605 mmHg 94%
    22:00 -1°C° 0.2 mm 1 mps 605 mmHg 94%
    23:00 -1°C° 0.2 mm 1 mps 605 mmHg 94%

    Tomorrow, 1 May, Monday

    Time Temperature Precipitation Wind Pressure Humidity
    00:00 -4°C° 0.2 mm 2 mps 605 mmHg 94%
    01:00 -5°C° 0 mm 2 mps 605 mmHg 93%
    02:00 -5°C° 0 mm 2 mps 605 mmHg 92%
    03:00 -6°C° 0 mm 2 mps 605 mmHg 92%
    04:00 -5°C° 0 mm 2 mps 606 mmHg 89%
    05:00 -5°C° 0 mm 2 mps 607 mmHg 86%
    06:00 -5°C° 0 mm 2 mps 607 mmHg 83%
    07:00 -3°C° 0 mm 2 mps 608 mmHg 75%
    08:00 -1°C° 0 mm 2 mps 610 mmHg 66%
    09:00 +3°C° 0 mm 2 mps 611 mmHg 58%
    10:00 +4°C° 0 mm 2 mps 611 mmHg 55%
    11:00 +5°C° 0 mm 2 mps 612 mmHg 53%
    12:00 +6°C° 0 mm 2 mps 612 mmHg 50%
    13:00 +6°C° 0 mm 2 mps 612 mmHg 52%
    14:00 +6°C° 0 mm 2 mps 612 mmHg 54%
    15:00 +5°C° 0 mm 2 mps 612 mmHg 55%
    16:00 +5°C° 0 mm 2 mps 611 mmHg 60%
    17:00 +5°C° 0 mm 1 mps 611 mmHg 65%
    18:00 +4°C° 0 mm 1 mps 611 mmHg 71%
    19:00 +3°C° 0 mm 1 mps 610 mmHg 76%
    20:00 +1°C° 0 mm 1 mps 610 mmHg 82%
    21:00 -1°C° 0 mm 1 mps 610 mmHg 88%
    22:00 -1°C° 0 mm 1 mps 609 mmHg 88%
    23:00 -1°C° 0 mm 1 mps 609 mmHg 87%

    Day after tomorrow, 2 May, Tuesday

    Time Temperature Precipitation Wind Pressure Humidity
    00:00 -1°C° 0 mm 1 mps 609 mmHg 87%
    01:00 -2°C° 0 mm 1 mps 609 mmHg 87%
    02:00 -2°C° 0 mm 1 mps 608 mmHg 87%
    03:00 -2°C° 0 mm 1 mps 608 mmHg 87%
    04:00 -1°C° 0.1 mm 1 mps 608 mmHg 84%
    05:00 +1°C° 0.1 mm 1 mps 609 mmHg 80%
    06:00 +2°C° 0.1 mm 1 mps 609 mmHg 77%
    07:00 +3°C° 0.2 mm 1 mps 610 mmHg 74%
    08:00 +4°C° 0.2 mm 1 mps 611 mmHg 71%
    09:00 +6°C° 0.2 mm 1 mps 611 mmHg 68%
    10:00 +5°C° 0.3 mm 2 mps 612 mmHg 69%
    11:00 +6°C° 0.3 mm 2 mps 612 mmHg 69%
    12:00 +7°C° 0.3 mm 3 mps 612 mmHg 70%
    13:00 +7°C° 0.8 mm 3 mps 612 mmHg 72%
    14:00 +6°C° 0.8 mm 2 mps 611 mmHg 74%
    15:00 +6°C° 0.8 mm 2 mps 611 mmHg 77%
    16:00 +6°C° 1.1 mm 2 mps 611 mmHg 81%
    17:00 +5°C° 1.1 mm 2 mps 611 mmHg 84%
    18:00 +5°C° 1.1 mm 1 mps 610 mmHg 88%
    19:00 +4°C° 0.5 mm 1 mps 610 mmHg 91%
    20:00 +3°C° 0.5 mm 1 mps 610 mmHg 93%
    21:00 +2°C° 0.5 mm 1 mps 610 mmHg 96%
    22:00 +1°C° 0.1 mm 1 mps 610 mmHg 96%
    23:00 +1°C° 0.1 mm 1 mps 610 mmHg 97%

    3 May, Wednesday

    Time Temperature Precipitation Wind Pressure Humidity
    00:00 0°C° 0.1 mm 1 mps 609 mmHg 97%
    01:00 +1°C° 0 mm 1 mps 609 mmHg 98%
    02:00 +1°C° 0 mm 1 mps 609 mmHg 98%
    03:00 +1°C° 0 mm 1 mps 609 mmHg 98%
    04:00 +1°C° 0 mm 0 mps 609 mmHg 97%
    05:00 +1°C° 0 mm 0 mps 610 mmHg 97%
    06:00 +2°C° 0 mm 0 mps 610 mmHg 96%
    07:00 +4°C° 0 mm 1 mps 610 mmHg 91%
    08:00 +5°C° 0 mm 1 mps 611 mmHg 85%
    09:00 +6°C° 0 mm 1 mps 612 mmHg 80%
    10:00 +7°C° 0.1 mm 1 mps 612 mmHg 76%
    11:00 +8°C° 0.1 mm 1 mps 612 mmHg 73%
    12:00 +7°C° 0.1 mm 2 mps 612 mmHg 69%
    13:00 +8°C° 0.1 mm 2 mps 612 mmHg 68%
    14:00 +8°C° 0.1 mm 2 mps 612 mmHg 67%
    15:00 +8°C° 0.1 mm 2 mps 612 mmHg 66%
    16:00 +9°C° 0.1 mm 1 mps 611 mmHg 70%
    17:00 +8°C° 0.1 mm 1 mps 611 mmHg 74%
    18:00 +7°C° 0.1 mm 1 mps 610 mmHg 79%
    19:00 +5°C° 0 mm 1 mps 610 mmHg 84%
    20:00 +3°C° 0 mm 1 mps 609 mmHg 90%
    21:00 +1°C° 0 mm 1 mps 608 mmHg 95%
    22:00 +1°C° 0 mm 1 mps 608 mmHg 95%
    23:00 +1°C° 0 mm 1 mps 608 mmHg 95%

    4 May, Thursday

    Time Temperature Precipitation Wind Pressure Humidity
    00:00 +1°C° 0 mm 1 mps 608 mmHg 96%
    01:00 +1°C° 0 mm 1 mps 607 mmHg 96%
    02:00 +1°C° 0 mm 1 mps 607 mmHg 95%
    03:00 0°C° 0 mm 1 mps 607 mmHg 95%
    04:00 +1°C° 0 mm 1 mps 607 mmHg 93%
    05:00 +3°C° 0 mm 1 mps 608 mmHg 91%
    06:00 +3°C° 0 mm 0 mps 608 mmHg 88%
    07:00 +6°C° 0 mm 1 mps 609 mmHg 78%
    08:00 +8°C° 0 mm 1 mps 610 mmHg 67%
    09:00 +11°C° 0 mm 1 mps 611 mmHg 57%
    10:00 +12°C° 0 mm 2 mps 611 mmHg 54%
    11:00 +13°C° 0 mm 2 mps 611 mmHg 52%
    12:00 +14°C° 0 mm 2 mps 612 mmHg 49%
    13:00 +14°C° 0 mm 2 mps 611 mmHg 51%
    14:00 +14°C° 0 mm 2 mps 611 mmHg 52%
    15:00 +14°C° 0 mm 2 mps 611 mmHg 54%
    16:00 +13°C° 0 mm 2 mps 610 mmHg 60%
    17:00 +12°C° 0 mm 2 mps 610 mmHg 66%
    18:00 +11°C° 0 mm 1 mps 609 mmHg 73%
    19:00 +9°C° 0 mm 1 mps 609 mmHg 79%
    20:00 +7°C° 0 mm 1 mps 608 mmHg 84%
    21:00 +5°C° 0 mm 1 mps 608 mmHg 90%
    22:00 +5°C° 0 mm 1 mps 608 mmHg 90%
    23:00 +5°C° 0 mm 1 mps 607 mmHg 89%

    5 May, Friday

    Time Temperature Precipitation Wind Pressure Humidity
    00:00 +5°C° 0 mm 1 mps 607 mmHg 89%
    01:00 +4°C° 0 mm 1 mps 607 mmHg 87%
    02:00 +4°C° 0 mm 1 mps 607 mmHg 85%
    03:00 +4°C° 0 mm 1 mps 606 mmHg 83%
    04:00 +4°C° 0 mm 2 mps 607 mmHg 79%
    05:00 +5°C° 0 mm 2 mps 607 mmHg 75%
    06:00 +6°C° 0 mm 2 mps 608 mmHg 71%
    07:00 +8°C° 0 mm 2 mps 609 mmHg 62%
    08:00 +11°C° 0 mm 3 mps 610 mmHg 54%
    09:00 +13°C° 0 mm 3 mps 611 mmHg 45%
    10:00 +14°C° 0 mm 3 mps 611 mmHg 42%
    11:00 +16°C° 0 mm 3 mps 611 mmHg 40%
    12:00 +17°C° 0 mm 4 mps 612 mmHg 38%
    13:00 +15°C° 0 mm 4 mps 611 mmHg 41%
    14:00 +14°C° 0 mm 3 mps 611 mmHg 44%
    15:00 +14°C° 0 mm 3 mps 610 mmHg 47%
    16:00 +13°C° 0 mm 3 mps 609 mmHg 52%
    17:00 +11°C° 0 mm 3 mps 609 mmHg 57%
    18:00 +10°C° 0 mm 3 mps 608 mmHg 62%
    19:00 +9°C° 0 mm 3 mps 608 mmHg 65%
    20:00 +8°C° 0 mm 2 mps 607 mmHg 68%
    21:00 +6°C° 0 mm 2 mps 607 mmHg 71%
    22:00 +6°C° 0 mm 2 mps 607 mmHg 72%
    23:00 +6°C° 0 mm 2 mps 607 mmHg 72%
    Show more